TimePST,TemperatureF,Dew PointF,Humidity,Sea Level PressureIn,VisibilityMPH,Wind Direction,Wind SpeedMPH,Gust SpeedMPH,PrecipitationIn,Events,Conditions,WindDirDegrees,DateUTC
12:15 AM,39.2,28.4,65,30.13,10.0,Calm,Calm,-,N/A,,Clear,0,2013-02-22 08:15:00
12:35 AM,41.0,26.6,57,30.13,10.0,Calm,Calm,-,N/A,,Clear,0,2013-02-22 08:35:00
12:55 AM,41.0,26.6,57,30.13,10.0,Calm,Calm,-,N/A,,Clear,0,2013-02-22 08:55:00
1:15 AM,39.2,26.6,61,30.14,10.0,East,5.8,-,N/A,,Clear,90,2013-02-22 09:15:00
1:35 AM,41.0,24.8,53,30.14,10.0,East,5.8,-,N/A,,Clear,90,2013-02-22 09:35:00
1:55 AM,39.2,24.8,56,30.14,10.0,East,6.9,-,N/A,,Clear,90,2013-02-22 09:55:00
2:15 AM,39.2,24.8,56,30.14,10.0,East,4.6,-,N/A,,Clear,100,2013-02-22 10:15:00
2:35 AM,37.4,24.8,60,30.14,10.0,East,6.9,-,N/A,,Clear,100,2013-02-22 10:35:00
2:55 AM,41.0,24.8,53,30.14,10.0,East,6.9,-,N/A,,Clear,100,2013-02-22 10:55:00
3:15 AM,39.2,24.8,56,30.14,10.0,ESE,6.9,-,N/A,,Clear,110,2013-02-22 11:15:00
3:35 AM,37.4,24.8,60,30.13,10.0,East,6.9,-,N/A,,Clear,100,2013-02-22 11:35:00
3:55 AM,37.4,23.0,56,30.13,10.0,East,6.9,-,N/A,,Clear,100,2013-02-22 11:55:00
4:15 AM,41.0,23.0,49,30.13,10.0,East,5.8,-,N/A,,Clear,100,2013-02-22 12:15:00
4:55 AM,37.4,21.2,52,30.15,10.0,East,4.6,-,N/A,,Clear,100,2013-02-22 12:55:00
5:15 AM,37.4,21.2,52,30.16,10.0,East,3.5,-,N/A,,Clear,90,2013-02-22 13:15:00
5:55 AM,39.2,19.4,45,30.16,10.0,East,3.5,-,N/A,,Clear,100,2013-02-22 13:55:00
6:15 AM,37.4,19.4,48,30.16,10.0,Calm,Calm,-,N/A,,Clear,0,2013-02-22 14:15:00
6:35 AM,39.2,19.4,45,30.17,10.0,Calm,Calm,-,N/A,,Clear,0,2013-02-22 14:35:00
6:55 AM,39.2,19.4,45,30.17,10.0,Calm,Calm,-,N/A,,Clear,0,2013-02-22 14:55:00
7:15 AM,39.2,19.4,45,30.18,10.0,Calm,Calm,-,N/A,,Clear,0,2013-02-22 15:15:00
7:35 AM,41.0,19.4,42,30.19,10.0,Calm,Calm,-,N/A,,Clear,0,2013-02-22 15:35:00
7:55 AM,41.0,23.0,49,30.20,10.0,Calm,Calm,-,N/A,,Clear,0,2013-02-22 15:55:00
8:15 AM,41.0,23.0,49,30.20,10.0,Calm,Calm,-,N/A,,Clear,0,2013-02-22 16:15:00
8:35 AM,42.8,23.0,46,30.20,10.0,SE,4.6,-,N/A,,Clear,130,2013-02-22 16:35:00
8:55 AM,44.6,24.8,46,30.20,10.0,SE,3.5,-,N/A,,Clear,130,2013-02-22 16:55:00
9:15 AM,44.6,26.6,49,30.20,10.0,Calm,Calm,-,N/A,,Clear,0,2013-02-22 17:15:00
9:35 AM,44.6,26.6,49,30.21,10.0,Calm,Calm,-,N/A,,Clear,0,2013-02-22 17:35:00
9:55 AM,46.4,28.4,50,30.21,10.0,SW,3.5,-,N/A,,Clear,220,2013-02-22 17:55:00
10:15 AM,48.2,30.2,50,30.21,10.0,Calm,Calm,-,N/A,,Clear,0,2013-02-22 18:15:00
10:35 AM,48.2,28.4,46,30.21,10.0,West,3.5,-,N/A,,Clear,260,2013-02-22 18:35:00
10:55 AM,50.0,32.0,50,30.21,10.0,SW,4.6,-,N/A,,Clear,230,2013-02-22 18:55:00
11:15 AM,50.0,32.0,50,30.21,10.0,SW,6.9,-,N/A,,Clear,230,2013-02-22 19:15:00
11:35 AM,50.0,32.0,50,30.21,10.0,West,5.8,-,N/A,,Clear,280,2013-02-22 19:35:00
11:55 AM,50.0,32.0,50,30.20,10.0,West,6.9,-,N/A,,Clear,270,2013-02-22 19:55:00
12:15 PM,50.0,32.0,50,30.20,10.0,WSW,6.9,-,N/A,,Clear,240,2013-02-22 20:15:00
12:35 PM,50.0,32.0,50,30.20,10.0,West,8.1,-,N/A,,Clear,280,2013-02-22 20:35:00
12:55 PM,50.0,32.0,50,30.20,10.0,WSW,5.8,-,N/A,,Clear,250,2013-02-22 20:55:00
1:15 PM,50.0,33.8,54,30.19,10.0,WNW,8.1,-,N/A,,Clear,300,2013-02-22 21:15:00
1:35 PM,50.0,32.0,50,30.18,10.0,Calm,Calm,-,N/A,,Clear,0,2013-02-22 21:35:00
1:55 PM,51.8,35.6,54,30.18,10.0,WSW,5.8,-,N/A,,Clear,240,2013-02-22 21:55:00
2:15 PM,50.0,35.6,58,30.18,10.0,WSW,4.6,-,N/A,,Mostly Cloudy,240,2013-02-22 22:15:00
2:35 PM,50.0,33.8,54,30.18,10.0,WSW,5.8,-,N/A,,Scattered Clouds,240,2013-02-22 22:35:00
2:55 PM,50.0,32.0,50,30.18,10.0,WNW,3.5,-,N/A,,Partly Cloudy,300,2013-02-22 22:55:00
3:15 PM,50.0,32.0,50,30.18,10.0,WSW,5.8,-,N/A,,Clear,250,2013-02-22 23:15:00
3:35 PM,51.8,32.0,47,30.18,10.0,SW,4.6,-,N/A,,Clear,220,2013-02-22 23:35:00
3:55 PM,51.8,32.0,47,30.18,10.0,South,3.5,-,N/A,,Clear,190,2013-02-22 23:55:00
4:15 PM,51.8,32.0,47,30.18,10.0,SSW,3.5,-,N/A,,Clear,200,2013-02-23 00:15:00
4:35 PM,50.0,32.0,50,30.18,10.0,Calm,Calm,-,N/A,,Clear,0,2013-02-23 00:35:00
4:55 PM,50.0,33.8,54,30.19,10.0,WSW,4.6,-,N/A,,Clear,250,2013-02-23 00:55:00
5:15 PM,48.2,35.6,62,30.18,10.0,SW,3.5,-,N/A,,Clear,220,2013-02-23 01:15:00
5:35 PM,46.4,35.6,66,30.18,10.0,SSW,4.6,-,N/A,,Clear,200,2013-02-23 01:35:00
5:55 PM,46.4,35.6,66,30.18,10.0,South,4.6,-,N/A,,Clear,190,2013-02-23 01:55:00
6:15 PM,46.4,35.6,66,30.18,10.0,South,5.8,-,N/A,,Clear,180,2013-02-23 02:15:00
6:55 PM,44.6,35.6,71,30.18,10.0,SE,6.9,-,N/A,,Clear,140,2013-02-23 02:55:00
7:15 PM,44.6,35.6,71,30.18,10.0,SSE,5.8,-,N/A,,Clear,150,2013-02-23 03:15:00
7:35 PM,44.6,33.8,66,30.19,10.0,SSE,5.8,-,N/A,,Clear,160,2013-02-23 03:35:00
7:55 PM,44.6,35.6,71,30.20,10.0,SSE,3.5,-,N/A,,Partly Cloudy,160,2013-02-23 03:55:00
8:15 PM,44.6,35.6,71,30.19,10.0,SSE,8.1,-,N/A,,Partly Cloudy,150,2013-02-23 04:15:00
8:55 PM,42.8,35.6,76,30.16,10.0,SE,9.2,-,N/A,,Clear,130,2013-02-23 04:55:00
9:15 PM,42.8,33.8,70,30.17,10.0,ESE,6.9,-,N/A,,Partly Cloudy,120,2013-02-23 05:15:00
9:35 PM,44.6,33.8,66,30.20,10.0,SSE,3.5,-,N/A,,Mostly Cloudy,160,2013-02-23 05:35:00
9:55 PM,44.6,33.8,66,30.20,10.0,SSE,3.5,-,N/A,,Overcast,160,2013-02-23 05:55:00
10:15 PM,44.6,33.8,66,30.19,10.0,SE,6.9,-,N/A,,Overcast,140,2013-02-23 06:15:00
10:35 PM,44.6,32.0,61,30.19,10.0,SSE,9.2,-,N/A,,Overcast,150,2013-02-23 06:35:00
10:55 PM,44.6,32.0,61,30.19,10.0,SSE,8.1,-,N/A,,Overcast,150,2013-02-23 06:55:00
11:15 PM,44.6,32.0,61,30.20,10.0,SSE,6.9,-,N/A,,Overcast,150,2013-02-23 07:15:00
11:35 PM,44.6,32.0,61,30.19,10.0,SSE,10.4,-,N/A,,Overcast,160,2013-02-23 07:35:00
11:55 PM,44.6,32.0,61,30.20,10.0,South,8.1,-,N/A,,Overcast,180,2013-02-23 07:55:00